Location: Fornova de Taro
(44.7000°N, 10.1000°E)
Time: 00:06:08
(UTC+00:00)

MOS 1 Rocket - Pass Details

Date: 26 May 2022
Orbit: 615 x 827 km, 97.5° (Epoch: 02 July)

Event Time Altitude Azimuth Distance (km) Brightness Sun altitude
Exits shadow 02:23:25 17° 229° (SW) 1,578 4.5 -11.6°
Maximum altitude 02:25:25 23° 267° (W) 1,319 4.3 -11.4°
Drops below altitude 10° 02:28:52 10° 320° (NW) 1,991 5.7 -10.9°
Sets 02:31:27 0° 335° (NNW) 2,916 6.8 -10.6°
